Starlink 11253

operational
NORAD ID: 60935 Int'l Des: 2024-155 Owner: SPXS Country: US Constellation: starlink
LEOCIRCULAR

Über Starlink 11253

Beschreibung wird geladen...

Live-Position

3D-Globus wird geladen...

Nächste Überflüge

Höhenverlauf

Altitude vs Time

uPlot chart will show altitude changes over time

Zweizeiliger Elementsatz

1 60935U 24155M 25259.01529157 .00001149 00000-0 14340-4 0 9994
2 60935 53.1596 122.6383 0001156 72.1409 287.9735 15.69717651 60965
Epoch: 16. Sept. 2025 • Age: 32 hours

Aktueller Status

Höhe 378.4 km
Geschwindigkeit 7.68 km/s
Subsatellitenpunkt -51.95°S, 74.37°W
Startdatum 31. Aug. 2024
Alter 1 years
Typ internet

Technische Details

Klassifizierung Payload
Masse 960.00 kg
Trockenmasse 910.00 kg
Gesamtmasse 960.00 kg
Länge 0.30 m
Durchmesser 4.10 m
Spannweite 29.00 m
Form Box + pan
Hersteller SPXS
Bus-Typ Starlink V2MD
Phasenstatus In Orbit
Besitzer/Staat SPXS/US

Große Konstellationen

Loading constellations...